Madison, SD

10:44 AM CST on December 03, 2016 (GMT -0600)
Madison Municipal

Weather History for KMDS - September, 2013

Change the Weather History Date:

Friday, September 27, 2013

  Actual Average Record
Temperature  
Mean Temperature 66 °F -  
Max Temperature 78 °F 70 °F 82 °F (2015)
Min Temperature 53 °F 42 °F 41 °F (2016)
Growing Degree Days 16 (Base 50)    
Moisture  
Dew Point 59 °F    
Average Humidity 78    
Maximum Humidity 100    
Minimum Humidity 51    
Precipitation  
Precipitation 0.05 in - - ()
Sea Level Pressure  
Sea Level Pressure 29.75 in    
Wind  
Wind Speed 14 mph (South)    
Max Wind Speed 23 mph    
Max Gust Speed 32 mph    
Visibility 10 miles    
Events Rain    
Averages and records for this station are not official NWS values.
T = Trace of Precipitation, MM = Missing Value Source: NWS Daily Summary

Daily Weather History Graph

Daily Weather History Graph

Search for Another Location

Airport or City:

Trip Planner

Search our weather history database for the weather conditions in past years. The results will help you decide how hot, cold, wet, or windy it might be!

Date:

Astronomy

Sep. 27, 2013 Rise Set
Actual Time 7:21 AM CDT 7:15 PM CDT
Civil Twilight 6:52 AM CDT 7:44 PM CDT
Nautical Twilight 6:19 AM CDT 8:18 PM CDT
Astronomical Twilight 5:45 AM CDT 8:52 PM CDT
Moon 12:06 AM CDT (9/27) 3:06 PM CDT (9/27)
Length of Visible Light 12h 51m
Length of Day
11h 54m
Last Quarter, 45% of the Moon is Illuminated
Sep 27
Last Quarter
Oct 4
New
Oct 11
First Quarter
Oct 18
Full
Oct 26
Last Quarter

Hourly Weather History & Observations

Time (CDT) Temp. Dew Point Humidity Pressure Visibility Wind Dir Wind Speed Gust Speed Precip Events Conditions
12:10 AM 71.6 °F 57.2 °F 60% 29.77 in 10.0 mi SSE 13.8 mph 21.9 mph N/A   Partly Cloudy
12:30 AM 69.8 °F 57.2 °F 64% 29.77 in 10.0 mi SSE 13.8 mph 21.9 mph N/A   Mostly Cloudy
12:50 AM 69.8 °F 57.2 °F 64% 29.76 in 10.0 mi SSE 13.8 mph 23.0 mph N/A   Partly Cloudy
1:10 AM 68.0 °F 57.2 °F 68% 29.76 in 10.0 mi SSE 13.8 mph 23.0 mph N/A   Clear
1:30 AM 68.0 °F 57.2 °F 68% 29.76 in 10.0 mi SSE 12.7 mph 20.7 mph N/A   Scattered Clouds
1:50 AM 68.0 °F 59.0 °F 73% 29.75 in 10.0 mi SSE 13.8 mph 19.6 mph N/A   Scattered Clouds
2:10 AM 68.0 °F 59.0 °F 73% 29.75 in 10.0 mi SSE 15.0 mph 24.2 mph N/A   Partly Cloudy
2:30 AM 68.0 °F 59.0 °F 73% 29.74 in 10.0 mi SSE 11.5 mph 23.0 mph N/A   Scattered Clouds
2:50 AM 68.0 °F 59.0 °F 73% 29.74 in 10.0 mi SSE 15.0 mph 20.7 mph N/A   Mostly Cloudy
3:10 AM 68.0 °F 59.0 °F 73% 29.74 in 10.0 mi SSE 16.1 mph 20.7 mph N/A   Mostly Cloudy
3:30 AM 68.0 °F 60.8 °F 78% 29.74 in 10.0 mi SSE 16.1 mph 23.0 mph N/A   Overcast
3:50 AM 66.2 °F 62.6 °F 88% 29.74 in 10.0 mi SSE 15.0 mph 21.9 mph N/A   Mostly Cloudy
4:10 AM 66.2 °F 62.6 °F 88% 29.74 in 10.0 mi SSE 11.5 mph 20.7 mph N/A   Mostly Cloudy
4:30 AM 66.2 °F 62.6 °F 88% 29.75 in 10.0 mi SSE 10.4 mph 16.1 mph N/A   Partly Cloudy
4:50 AM 66.2 °F 64.4 °F 94% 29.75 in 10.0 mi SSE 10.4 mph - N/A   Clear
5:10 AM 66.2 °F 64.4 °F 94% 29.75 in 10.0 mi SE 13.8 mph 19.6 mph N/A   Clear
5:30 AM 64.4 °F 64.4 °F 100% 29.75 in 10.0 mi SE 12.7 mph 18.4 mph N/A   Clear
5:50 AM 64.4 °F 64.4 °F 100% 29.75 in 10.0 mi SE 13.8 mph 18.4 mph N/A   Clear
6:10 AM 64.4 °F 64.4 °F 100% 29.74 in 10.0 mi SE 11.5 mph 19.6 mph N/A   Clear
6:30 AM 64.4 °F 64.4 °F 100% 29.74 in 10.0 mi SE 11.5 mph 18.4 mph N/A   Clear
6:50 AM 64.4 °F 64.4 °F 100% 29.74 in 10.0 mi SE 11.5 mph 19.6 mph N/A   Clear
7:10 AM 64.4 °F 64.4 °F 100% 29.74 in 10.0 mi SE 13.8 mph 20.7 mph N/A   Clear
7:30 AM 64.4 °F 64.4 °F 100% 29.73 in 10.0 mi SE 12.7 mph 16.1 mph N/A   Clear
7:50 AM 64.4 °F 64.4 °F 100% 29.73 in 10.0 mi SE 16.1 mph 20.7 mph N/A   Clear
8:10 AM 64.4 °F 64.4 °F 100% 29.74 in 10.0 mi SSE 13.8 mph 21.9 mph N/A   Clear
8:30 AM 64.4 °F 64.4 °F 100% 29.74 in 10.0 mi SSE 11.5 mph 25.3 mph N/A   Clear
8:50 AM 66.2 °F 64.4 °F 94% 29.74 in 10.0 mi SSE 15.0 mph 21.9 mph N/A   Clear
9:10 AM 66.2 °F 62.6 °F 88% 29.73 in 10.0 mi SSE 19.6 mph 28.8 mph N/A   Partly Cloudy
9:30 AM 66.2 °F 64.4 °F 94% 29.74 in 10.0 mi South 17.3 mph 26.5 mph N/A   Partly Cloudy
9:50 AM 68.0 °F 64.4 °F 88% 29.74 in 10.0 mi SSE 13.8 mph 24.2 mph N/A   Clear
10:10 AM 66.2 °F 64.4 °F 94% 29.74 in 10.0 mi South 12.7 mph 25.3 mph N/A Rain Light Rain
10:30 AM 68.0 °F 64.4 °F 88% 29.74 in 10.0 mi SSE 17.3 mph 23.0 mph N/A   Clear
10:50 AM 71.6 °F 62.6 °F 73% 29.74 in 10.0 mi South 19.6 mph 24.2 mph N/A   Clear
11:10 AM 71.6 °F 62.6 °F 73% 29.74 in 10.0 mi South 19.6 mph 32.2 mph N/A   Clear
11:30 AM 73.4 °F 62.6 °F 69% 29.73 in 10.0 mi South 19.6 mph 27.6 mph N/A   Clear
11:50 AM 75.2 °F 60.8 °F 61% 29.73 in 10.0 mi South 16.1 mph 28.8 mph N/A   Clear
12:10 PM 77.0 °F 59.0 °F 54% 29.72 in 10.0 mi South 21.9 mph 32.2 mph N/A   Clear
12:30 PM 77.0 °F 59.0 °F 54% 29.71 in 10.0 mi South 23.0 mph 31.1 mph N/A   Clear
12:50 PM 77.0 °F 59.0 °F 54% 29.72 in 10.0 mi South 23.0 mph 29.9 mph N/A   Clear
1:10 PM 77.0 °F 59.0 °F 54% 29.72 in 10.0 mi SSW 21.9 mph 32.2 mph N/A   Partly Cloudy
1:30 PM 77.0 °F 59.0 °F 54% 29.73 in 10.0 mi SSW 16.1 mph 28.8 mph N/A   Partly Cloudy
1:50 PM 78.8 °F 59.0 °F 51% 29.72 in 10.0 mi SSW 20.7 mph 29.9 mph N/A   Partly Cloudy
2:10 PM 77.0 °F 59.0 °F 54% 29.72 in 10.0 mi South 21.9 mph 28.8 mph N/A   Scattered Clouds
2:30 PM 77.0 °F 59.0 °F 54% 29.74 in 10.0 mi South 19.6 mph 28.8 mph N/A   Mostly Cloudy
2:50 PM 75.2 °F 60.8 °F 61% 29.74 in 10.0 mi South 17.3 mph 25.3 mph N/A   Scattered Clouds
3:10 PM 73.4 °F 62.6 °F 69% 29.75 in 10.0 mi South 12.7 mph 20.7 mph N/A Rain Light Rain
3:30 PM 71.6 °F 64.4 °F 78% 29.73 in 10.0 mi South 9.2 mph - N/A   Clear
3:50 PM 73.4 °F 64.4 °F 73% 29.74 in 10.0 mi SSW 11.5 mph - N/A   Clear
4:10 PM 75.2 °F 60.8 °F 61% 29.75 in 10.0 mi SW 12.7 mph 18.4 mph N/A   Clear
4:30 PM 73.4 °F 59.0 °F 61% 29.76 in 10.0 mi WSW 11.5 mph 16.1 mph N/A   Clear
4:50 PM 73.4 °F 59.0 °F 61% 29.76 in 10.0 mi West 10.4 mph 17.3 mph N/A   Clear
5:10 PM 71.6 °F 59.0 °F 64% 29.77 in 10.0 mi WSW 8.1 mph 16.1 mph N/A   Clear
5:30 PM 71.6 °F 57.2 °F 60% 29.77 in 10.0 mi NW 11.5 mph 17.3 mph N/A   Clear
5:50 PM 68.0 °F 53.6 °F 60% 29.77 in 10.0 mi NW 12.7 mph - N/A   Clear
6:10 PM 66.2 °F 53.6 °F 64% 29.77 in 10.0 mi NW 6.9 mph - N/A   Clear
6:30 PM 66.2 °F 53.6 °F 64% 29.77 in 10.0 mi NW 6.9 mph - N/A   Clear
6:50 PM 66.2 °F 53.6 °F 64% 29.77 in 10.0 mi NW 8.1 mph - N/A   Clear
7:10 PM 64.4 °F 53.6 °F 68% 29.76 in 10.0 mi NW 8.1 mph - N/A   Clear
7:30 PM 62.6 °F 53.6 °F 72% 29.76 in 10.0 mi NNW 6.9 mph - N/A   Clear
7:50 PM 60.8 °F 53.6 °F 77% 29.76 in 10.0 mi NNW 9.2 mph - N/A   Clear
8:10 PM 59.0 °F 53.6 °F 82% 29.76 in 10.0 mi North 6.9 mph - N/A   Clear
8:30 PM 59.0 °F 53.6 °F 82% 29.76 in 10.0 mi NNW 10.4 mph - N/A   Clear
8:50 PM 57.2 °F 51.8 °F 82% 29.76 in 10.0 mi NNW 10.4 mph - N/A   Partly Cloudy
9:10 PM 57.2 °F 51.8 °F 82% 29.78 in 10.0 mi NW 13.8 mph 17.3 mph N/A   Mostly Cloudy
9:30 PM 57.2 °F 51.8 °F 82% 29.80 in 10.0 mi NW 12.7 mph 23.0 mph N/A Rain Light Rain
9:50 PM 55.4 °F 55.4 °F 100% 29.76 in 10.0 mi ENE 4.6 mph - 0.02 in Rain Light Rain
10:10 PM 55.4 °F 55.4 °F 100% 29.78 in 10.0 mi WNW 12.7 mph - N/A Rain Light Rain
10:30 PM 53.6 °F 53.6 °F 100% 29.76 in 7.0 mi NNE 4.6 mph 18.4 mph 0.02 in Rain Light Rain
10:50 PM 53.6 °F 53.6 °F 100% 29.76 in 10.0 mi NW 8.1 mph - 0.03 in Rain Light Rain
11:10 PM 53.6 °F 53.6 °F 100% 29.72 in 10.0 mi NNE 5.8 mph - N/A Rain Light Rain
11:30 PM 53.6 °F 53.6 °F 100% 29.73 in 10.0 mi NE 5.8 mph - N/A   Mostly Cloudy
11:50 PM 55.4 °F 55.4 °F 100% 29.71 in 10.0 mi NE 4.6 mph - N/A   Mostly Cloudy